Weather in Nizhnyaya Mara

Russia / Karachay-Cherkess Republic     43°45′47″N   42°05′10″E
temp.,
°C
wind,
m/s
gust,
m/s
humid.,
%
clouds,
%
prec.,
mm/h
press.,
hPa
HPBL,
m
7 may, fri
fri700:00+7sse228983 0.0 101426
03:00+5se3382100 0.0 101548
06:00+7sse237892 0.0 101671
09:00+14nw11475 0.0 10151023
12:00+16nnw444849 0.1 10141945
15:00+13n336885 1.5 10161087
18:00+10nnw2387100 0.9 1017140
21:00+9nw119491 1.2 101955
8 may, sat
sat800:00+8sse009611 0.0 101931
03:00+5se23933 0.0 101943
06:00+5se338429 0.0 101873
09:00+15wsw0145100 0.0 1014499
12:00+18nnw323797 0.0 10121268
15:00+16nw4359100 0.0 1012923
18:00+14nw237835 0.5 1012227
21:00+9sw119584 1.4 101511
9 may, sun
sun900:00+6se3386100 0.0 101445
03:00+7se3376100 0.0 101242
06:00+8sse2382100 0.1 101170
09:00+14ssw245293 0.2 1009913
12:00+11n558499 0.4 1010653
15:00+1nne2399100 8.6 1020161
18:00+1w22100100 6.3 102292
21:000wsw24100100 7.4 1024242
10 may, mon
mon1000:000w23100100 2.4 1025121
03:000wsw12100100 3.8 102590
06:00−3s3496100 0.4 1027165
09:00+2w138617 0.5 1023702
12:00+4nw248077 0.7 1020929
15:00+3nw2497100 3.1 1020486
18:00+1wsw0199100 3.6 1021107
21:000e119999 3.8 1021125
11 may, tue
tue1100:00−3se119796 0.0 102119
03:00−2se239391 0.0 102167
06:00−1se3491100 0.1 1020112
09:00+4s2476100 0.4 1016453
12:00+6s1576100 0.8 1013674
15:00+4s3691100 3.7 1016712
18:00+4ese229599 0.7 101656
21:00+1se119870 0.8 101914